Location: Starlight Observatory
(38.4029°N, 85.8936°W)
Time: 15:00:16
(UTC-05:00)

Daily predictions for brighter satellites

Satellite Brightness Start Highest point End
(mag) Time Altitude Azimuth Time Altitude Azimuth Time Altitude Azimuth
Meteor 2-4 Rocket 3.9 18:54:51 10° N 19:00:07 47° ENE 19:05:16 10° SSE
USA 229 DEB 4.1 18:53:28 10° NNW 19:00:23 49° NE 19:07:22 10° SE
USA 229 4.1 18:53:35 10° NNW 19:00:29 49° NE 19:07:27 10° SE
Cosmos 2227 Rocket 3.3 18:59:20 10° SSE 19:03:30 22° E 19:07:41 10° NE
Cosmos 2219 3.2 18:58:25 10° SSW 19:04:09 77° ESE 19:09:54 10° NNE
BREEZE-M DEB (TANK) 4.1 19:04:43 10° NW 19:07:34 32° NE 19:14:15 10° E
Cosmos 1570 Rocket 4.0 19:03:52 10° NNW 19:09:06 72° ENE 19:14:20 10° SSE
Resurs 01 Rocket 2.8 19:06:12 10° ESE 19:09:34 22° ENE 19:12:58 10° NNE
Meteor 1-23 Rocket 4.5 19:05:41 10° N 19:11:18 49° ENE 19:16:48 10° SSE
NOAA 12 4.1 19:07:53 10° SSE 19:13:09 69° ENE 19:18:28 10° N
Cosmos 1025 Rocket 3.4 19:11:26 10° N 19:15:38 43° E 19:19:49 10° SSE
Spot 2 Rocket 4.4 19:11:44 10° SE 19:15:59 28° ENE 19:20:16 10° N
Cosmos 1340 4.2 19:12:34 10° NNW 19:16:10 42° W 19:19:44 10° SSW
Okean 1 Rocket 3.2 19:12:01 10° S 19:16:30 85° W 19:21:00 10° N
SL-16 R/B 4.0 19:17:00 10° NNE 19:19:03 12° NE 19:21:06 10° ENE
FREGAT/IRIS 2.7 19:17:23 10° SSE 19:20:23 53° ENE 19:23:24 10° N
Cosmos 1633 4.4 19:17:55 10° SSW 19:21:20 36° W 19:24:47 10° N
Atlas Centaur 2 4.1 19:19:07 10° SSW 19:25:21 25° SSE 19:30:22 12° ESE
GPS 2-04 Rocket1 3.1 19:21:59 10° W 19:26:07 60° S 19:29:35 15° ESE
Abrixas rocket 4.0 19:26:37 10° W 19:29:30 26° NNW 19:32:23 10° NE
OTV 4 0.6 19:27:01 10° WSW 19:29:57 57° SSE 19:31:45 20° E
Cosmos 1536 3.3 19:27:10 10° SSW 19:31:07 65° W 19:35:05 10° N
FENGYUN 3A 3.8 19:27:36 10° SSE 19:32:52 55° ENE 19:38:09 10° N
Okean 2 3.7 19:29:19 10° N 19:33:21 45° E 19:37:21 10° SSE
Cosmos 2074 Rocket 4.0 19:29:27 10° S 19:35:42 78° E 19:42:00 10° N
HJ-1C 3.4 19:35:35 10° SSE 19:38:53 56° ENE 19:42:11 10° N
Cosmos 1544 Rocket 3.8 19:38:06 10° SSE 19:42:11 43° E 19:46:17 10° NNE
Cosmos 1980 4.1 19:36:58 10° N 19:42:18 41° ENE 19:46:48 14° SE
NOSS 0 Rocket 4.0 19:37:20 10° NNW 19:43:23 55° ENE 19:49:23 10° SE
Cosmos 2184 Rocket 4.0 19:38:07 10° S 19:44:25 88° E 19:50:42 10° N
Cosmos 2333 Rocket 2.3 19:40:10 10° NNW 19:45:51 56° ENE 19:51:29 10° SE
Helios 1B rocket 3.3 19:44:06 10° NE 19:47:41 28° E 19:51:15 10° SSE
Helios 1A 3.7 19:52:56 28° E 19:53:57 32° ENE 19:57:39 10° N
Cosmos 1975 3.3 19:51:07 10° SSE 19:54:50 38° E 19:58:37 10° NNE
Cosmos 1437 3.0 19:53:30 10° N 19:56:40 44° E 19:56:58 43° E
Cosmos 1500 3.6 19:53:32 10° SSE 19:57:02 36° E 20:00:32 10° NNE
Nadezhda 3 Rocket 4.0 19:56:42 10° N 20:02:46 56° E 20:08:50 10° SSE
Cosmos 1486 Rocket 4.0 19:58:13 10° S 20:03:27 61° ESE 20:08:41 10° NNE
SL-19 R/B 4.3 19:58:39 10° SSE 20:04:22 84° ENE 20:10:33 10° NNW
Cosmos 1515 3.8 20:01:06 10° N 20:04:52 50° E 20:05:38 42° ESE
Cosmos 2082 3.6 20:01:25 10° S 20:07:06 69° ESE 20:12:47 10° NNE
Cosmos 841 Rocket 3.9 20:05:09 10° N 20:09:58 38° ENE 20:10:38 37° E
Spot 1 4.0 20:11:15 45° ESE 20:12:06 55° ENE 20:16:14 10° N
ATLAS CENTAUR R/B 1.4 20:09:02 10° SW 20:13:10 59° NW 20:13:24 55° NNW
Cosmos 2154 Rocket 3.9 20:07:54 10° S 20:14:13 79° E 20:20:34 10° N
Cosmos 2341 Rocket 4.0 20:09:58 10° S 20:16:13 61° E 20:22:30 10° NNE
Cosmos 1763 Rocket 3.5 20:13:43 10° N 20:18:48 58° ENE 20:20:13 43° ESE
Cosmos 1455 Rocket 3.0 20:14:58 10° S 20:19:21 86° W 20:23:43 10° N
Hubble Space Telescope 2.6 20:16:50 10° SW 20:19:52 20° S 20:20:16 19° S
Cosmos 405 Rocket 3.7 20:19:49 10° NNW 20:23:44 50° W 20:27:33 10° S
Cosmos 2297 Rocket 2.1 20:20:31 10° SSW 20:26:09 86° ESE 20:31:51 10° NNE
Cosmos 2237 Rocket 2.1 20:20:56 10° NNW 20:26:41 89° ENE 20:29:45 29° SSE
H-2A R/B 3.5 20:23:05 10° S 20:26:42 50° W 20:30:22 10° NNW
ALOS 3.7 20:23:10 10° SSW 20:27:30 38° W 20:31:52 10° NNW
Cosmos 332 Rocket 3.7 20:23:03 10° N 20:27:53 60° ENE 20:28:03 60° E
OAO 3 Rocket 3.5 20:23:11 10° WSW 20:27:57 50° S 20:28:19 48° SSE
Meteor 2-19 Rocket 4.5 20:22:12 10° SSE 20:28:07 53° E 20:34:05 10° NNE
Meteor 2-8 Rocket 4.4 20:22:42 10° N 20:28:42 58° E 20:30:43 40° SE
SAR-Lupe-4 3.6 20:29:01 74° W 20:29:01 74° W 20:32:31 10° NNW
CZ-2D R/B 3.6 20:30:04 35° SSW 20:31:30 62° W 20:35:18 10° NNW
Cosmos 1066 Rocket 4.0 20:28:56 10° N 20:34:32 73° E 20:36:02 48° SSE
Cosmos 2219 Rocket 3.2 20:30:21 10° NW 20:35:37 44° WSW 20:40:54 10° S
Cosmos 371 Rocket 3.7 20:31:50 10° N 20:35:47 48° NNE 20:35:47 48° NNE
Cosmos 962 Rocket 4.4 20:34:46 10° S 20:40:57 85° W 20:47:07 10° N
Resurs 01 Rocket 3.4 20:41:57 10° SSW 20:45:51 31° W 20:49:47 10° NW
Cosmos 2227 Rocket 3.1 20:41:41 10° SW 20:47:08 48° WNW 20:52:38 10° NNE
Cosmos 1441 Rocket 4.2 20:46:08 10° NNW 20:49:21 47° WNW 20:49:21 47° WNW
GEOS 3 Rocket 4.3 21:01:29 31° N 21:03:46 52° NW 21:08:52 10° SW
SL-16 R/B 2.5 20:58:25 10° NNW 21:03:01 58° N 21:03:01 58° N
NOSS 3-1 (A) 4.0 20:56:33 10° NW 21:04:19 85° WSW 21:06:34 54° SSE
OTV 4 4.1 21:02:59 10° W 21:03:01 10° W 21:03:01 10° W
ATLAS 2AS CENTAUR R/B 3.7 21:02:34 10° NNW 21:09:17 36° NE 21:09:17 36° NE
Envisat 3.8 21:12:40 47° NW 21:12:40 47° NW 21:16:22 10° NNW
Atlas Centaur 2 3.5 21:07:36 10° WSW 21:13:01 35° SSW 21:13:01 35° SSW
SL-8 Rocket 4.3 21:17:34 10° SSW 21:23:47 65° W 21:30:05 10° N
